Weather History for KEWR - May, 2012

Change the Weather History Date:

Saturday, May 26, 2012

  Actual Average Record
Temperature  
Mean Temperature 76 °F 66 °F  
Max Temperature 86 °F 75 °F 96 °F (1965)
Min Temperature 66 °F 56 °F 44 °F (1967)
Degree Days  
Heating Degree Days 0 3  
Month to date heating degree days 55 126  
Since 1 July heating degree days 3693 4846  
Cooling Degree Days 11 3  
Month to date cooling degree days 43 44  
Year to date cooling degree days 71 56  
Growing Degree Days 26 (Base 50)    
Moisture  
Dew Point 67 °F    
Average Humidity 76    
Maximum Humidity 93    
Minimum Humidity 59    
Precipitation  
Precipitation T in 0.14 in 1.29 in (2003)
Month to date precipitation 4.21 3.38  
Year to date precipitation 12.93 18.18  
Snow  
Snow 0.00 in 0.00 in 0.00 in (2002)
Month to date snowfall 0.0 0.0  
Since 1 July snowfall 8.8 28.5  
Snow Depth 0.00 in    
Sea Level Pressure  
Sea Level Pressure 30.11 in    
Wind  
Wind Speed 6 mph (SW)    
Max Wind Speed 15 mph    
Max Gust Speed 20 mph    
Visibility 9 miles    
Events      
T = Trace of Precipitation, MM = Missing Value Source: NWS Daily Summary

Daily Weather History Graph

Daily Weather History Graph

Search for Another Location

Airport or City:

Trip Planner

Search our weather history database for the weather conditions in past years. The results will help you decide how hot, cold, wet, or windy it might be!

Date:

Astronomy

May. 26, 2012 Rise Set
Actual Time 5:30 AM EDT 8:17 PM EDT
Civil Twilight 4:58 AM EDT 8:49 PM EDT
Nautical Twilight 4:18 AM EDT 9:30 PM EDT
Astronomical Twilight 3:32 AM EDT 10:16 PM EDT
Moon 10:30 AM EDT (5/26) No Moon Set
Length of Visible Light 15h 50m
Length of Day
14h 46m
Waxing Crescent, 28% of the Moon is Illuminated
May 26
Waxing Crescent
May 28
First Quarter
Jun 4
Full
Jun 11
Last Quarter
Jun 19
New

Hourly Weather History & Observations

Time (EDT) Temp. Heat Index Dew Point Humidity Pressure Visibility Wind Dir Wind Speed Gust Speed Precip Events Conditions
12:51 AM 68.0 °F - 64.4 °F 88% 30.12 in 8.0 mi Calm Calm - N/A   Mostly Cloudy
1:47 AM 69.8 °F - 66.2 °F 88% 30.13 in 8.0 mi Calm Calm - N/A   Mostly Cloudy
1:51 AM 68.0 °F - 66.0 °F 93% 30.13 in 8.0 mi Calm Calm - N/A   Mostly Cloudy
2:51 AM 68.0 °F - 66.0 °F 93% 30.13 in 9.0 mi Calm Calm - N/A   Mostly Cloudy
3:24 AM 66.2 °F - 64.4 °F 94% 30.13 in 10.0 mi SSE 4.6 mph - N/A   Mostly Cloudy
3:51 AM 66.9 °F - 64.9 °F 93% 30.13 in 10.0 mi Calm Calm - N/A   Mostly Cloudy
4:51 AM 66.9 °F - 64.0 °F 90% 30.12 in 10.0 mi South 3.5 mph - N/A   Mostly Cloudy
5:51 AM 66.9 °F - 64.0 °F 90% 30.13 in 10.0 mi SW 5.8 mph - N/A   Mostly Cloudy
6:51 AM 68.0 °F - 64.9 °F 90% 30.14 in 10.0 mi WSW 6.9 mph - N/A   Mostly Cloudy
7:51 AM 71.1 °F - 66.0 °F 84% 30.14 in 10.0 mi WSW 6.9 mph - N/A   Mostly Cloudy
8:51 AM 73.9 °F - 66.9 °F 79% 30.14 in 10.0 mi WSW 6.9 mph - N/A   Mostly Cloudy
9:51 AM 77.0 °F - 68.0 °F 74% 30.13 in 10.0 mi SW 10.4 mph - N/A   Mostly Cloudy
10:51 AM 79.0 °F - 69.1 °F 72% 30.13 in 10.0 mi SW 9.2 mph - N/A   Scattered Clouds
11:51 AM 82.0 °F 85.9 °F 70.0 °F 67% 30.12 in 10.0 mi South 8.1 mph - N/A   Partly Cloudy
12:51 PM 84.9 °F 88.8 °F 69.1 °F 59% 30.12 in 9.0 mi WSW 8.1 mph - N/A   Partly Cloudy
1:51 PM 84.9 °F 88.8 °F 69.1 °F 59% 30.09 in 9.0 mi SSW 9.2 mph - N/A   Scattered Clouds
2:35 PM 82.4 °F 86.3 °F 69.8 °F 66% 30.07 in 10.0 mi South 9.2 mph 16.1 mph N/A   Mostly Cloudy
2:51 PM 82.9 °F 86.5 °F 69.1 °F 63% 30.08 in 10.0 mi South 8.1 mph - N/A   Overcast
3:51 PM 82.0 °F 85.9 °F 70.0 °F 67% 30.07 in 9.0 mi SSW 8.1 mph - N/A   Overcast
4:51 PM 84.0 °F 88.4 °F 70.0 °F 63% 30.07 in 10.0 mi SSW 10.4 mph 17.3 mph N/A   Mostly Cloudy
5:51 PM 84.0 °F 87.0 °F 68.0 °F 58% 30.09 in 10.0 mi WSW 8.1 mph - N/A   Mostly Cloudy
6:51 PM 80.1 °F 82.3 °F 66.9 °F 64% 30.10 in 10.0 mi East 4.6 mph - 0.00 in   Overcast
7:51 PM 81.0 °F 83.8 °F 68.0 °F 65% 30.08 in 8.0 mi WSW 9.2 mph - N/A   Mostly Cloudy
8:51 PM 79.0 °F - 71.1 °F 77% 30.08 in 9.0 mi West 8.1 mph - N/A   Mostly Cloudy
9:51 PM 78.1 °F - 69.1 °F 74% 30.10 in 9.0 mi West 9.2 mph - N/A   Mostly Cloudy
10:51 PM 75.0 °F - 66.0 °F 73% 30.10 in 9.0 mi WSW 4.6 mph - N/A   Mostly Cloudy
11:51 PM 72.0 °F - 66.0 °F 81% 30.11 in 10.0 mi SSW 4.6 mph - N/A   Mostly Cloudy